Home   Weather   Leon   Past weeks
Flag for Mexico

Past Weather in Leon, Guanajuato, Mexico — Yesterday and Last 2 Weeks

Now
37 °F

Clear.


Feels Like: 31 °F
Forecast: 35 / 68 °F
Wind: 8 mph from Northeast

Location: Del Bajio / Leon

Current Time: Dec 15, 2018 at 3:23:15 am

Latest Report: Dec 15, 2018 at 2:02 am


Visibility: 13 mi

Pressure: 30.37 "Hg (24.28 "Hg at 1808m altitude)

Humidity: 48%

Dew Point: 19 °F

Location of LeonLocation

Past Weather in Leon — Graph

°F

Leon Temperature Yesterday

Maximum temperature yesterday: 68 °F (at 2:42 pm)
Minimum temperature yesterday: 41 °F (at 4:41 am)
Average temperature yesterday: 55 °F

High & Low Weather Summary for the Past Weeks

 TemperatureHumidityPressure
High77 °F (Dec 3, 2:45 pm)100% (Nov 30, 3:43 am)30.50 "Hg (Nov 30, 3:43 am)
Low37 °F (Dec 15, 2:02 am)21% (Dec 3, 3:52 pm)29.80 "Hg (Dec 2, 5:43 pm)
Average59 °F63%30.22 "Hg
* Reported Nov 30 3:43 am — Dec 15 2:02 am, Leon. Weather by CustomWeather, © 2018

Note: Actual official high and low records may vary slightly from our data, if they occured in-between our weather recording intervals... More about our weather records

Advertising

Leon Weather History for the Previous 24 Hours

Scroll right to see more
 ConditionsComfort  
Time TempWeatherWind HumidityBarometerVisibility
2:02 am
Sat, Dec 15
37 °FClear.8 mph48%30.37 "Hg13 mi
10:42 pm
Fri, Dec 14
50 °FClear.12 mph22%30.36 "Hg8 mi
9:40 pm52 °FClear.13 mph22%30.34 "Hg8 mi
8:42 pm54 °FClear.6 mph24%30.12 "Hg10 mi
7:42 pm55 °FPassing clouds.9 mph38%30.31 "Hg10 mi
6:42 pm57 °FPassing clouds.6 mph33%30.29 "Hg10 mi
5:42 pm64 °FPartly sunny.8 mph22%30.03 "Hg10 mi
4:42 pm66 °FPartly sunny.5 mph22%30.26 "Hg10 mi
3:42 pm68 °FPartly sunny.7 mph23%30.26 "Hg10 mi
2:42 pm68 °FPartly sunny.7 mph26%30.02 "Hg10 mi
1:43 pm66 °FPartly sunny.6 mph30%30.29 "Hg10 mi
12:50 pm64 °FPartly sunny.6 mph34%30.32 "Hg10 mi
11:44 am63 °FPartly sunny.No wind27%30.10 "Hg10 mi
10:42 am59 °FPartly sunny.No wind29%30.38 "Hg10 mi
9:41 am57 °FPartly sunny.No wind33%30.38 "Hg10 mi
8:40 am52 °FPartly sunny.No wind44%30.13 "Hg10 mi
7:41 am41 °FScattered clouds.No wind93%30.32 "Hg8 mi
6:41 am41 °FPassing clouds.5 mph87%30.32 "Hg8 mi
5:41 am46 °FClear.No wind53%30.07 "Hg8 mi
4:41 am41 °FClear.3 mph87%30.30 "Hg8 mi
3:41 am45 °FClear.3 mph81%30.30 "Hg8 mi
Weather by CustomWeather, © 2018

See weather overview